BRU956 UUDD-UMMS

Flight info

Callsign BRU956
Flight time N/A
Altitude 32000
Route SOTOG L736 ASKIL M863 RUHAL
Aircraft A332/H-SDE3GHIJ2J3J5M1RVWXY/LB2D1

Departure

Time 2026-04-30 22:45
Airport Domodedovo International Airport (UUDD)

Arrival

Time N/A
Airport Minsk National Airport (UMMS)
Time Latitude Longitude Altitude Speed Heading
2026-04-30 22:32 55.41363 37.90212 603 ft 0 kts 54°
2026-04-30 22:38 55.41361 37.90207 603 ft 2 kts 54°
2026-04-30 22:38 55.41344 37.90163 603 ft 2 kts 76°
2026-04-30 22:39 55.41343 37.90138 603 ft 2 kts 111°
2026-04-30 22:39 55.41352 37.90115 603 ft 0 kts 145°
2026-04-30 22:41 55.41054 37.90346 603 ft 24 kts 234°
2026-04-30 22:41 55.40858 37.89749 603 ft 28 kts 234°
2026-04-30 22:42 55.40400 37.89627 603 ft 33 kts 146°
2026-04-30 22:43 55.39983 37.90128 603 ft 35 kts 146°
2026-04-30 22:43 55.39614 37.90509 603 ft 20 kts 204°
2026-04-30 22:44 55.39719 37.90085 603 ft 43 kts 326°
2026-04-30 22:45 55.42981 37.85880 2345 ft 175 kts 304°
2026-04-30 22:45 55.44582 37.82266 3112 ft 202 kts 310°
2026-04-30 22:46 55.46133 37.77810 3802 ft 235 kts 275°
2026-04-30 22:47 55.41424 37.69470 6690 ft 271 kts 210°
2026-04-30 22:47 55.38126 37.66135 8486 ft 279 kts 210°
2026-04-30 22:48 55.34660 37.62613 9820 ft 304 kts 210°
2026-04-30 22:49 55.29003 37.56688 12209 ft 324 kts 221°
2026-04-30 22:49 55.25032 37.47187 14602 ft 336 kts 255°
2026-04-30 22:50 55.21910 37.32161 18030 ft 335 kts 249°
2026-04-30 22:51 55.20236 37.24497 19424 ft 342 kts 249°
2026-04-30 22:51 55.18520 37.16668 20751 ft 348 kts 249°
2026-04-30 22:52 55.17657 37.12745 21371 ft 352 kts 249°
2026-04-30 22:52 55.15881 37.04692 22585 ft 358 kts 249°
2026-04-30 22:53 55.14084 36.96576 23725 ft 364 kts 249°
2026-04-30 22:53 55.12234 36.88252 24833 ft 370 kts 249°
2026-04-30 22:53 55.11308 36.84098 25366 ft 373 kts 249°
2026-04-30 22:54 55.09390 36.75521 25982 ft 393 kts 249°
2026-04-30 22:55 55.06261 36.61602 26470 ft 429 kts 249°
2026-04-30 22:55 55.04063 36.51875 27467 ft 434 kts 249°
2026-04-30 22:56 55.01839 36.42080 28304 ft 442 kts 249°
2026-04-30 22:56 54.98470 36.27330 30245 ft 436 kts 248°
2026-04-30 22:57 54.96224 36.17556 31402 ft 434 kts 248°
2026-04-30 22:57 54.93982 36.07843 31976 ft 438 kts 248°
2026-04-30 22:58 54.92426 35.97733 32037 ft 427 kts 264°
2026-04-30 22:59 54.90426 35.66814 32008 ft 432 kts 264°